Aberdeen, MS

1:36 AM CDT on September 27, 2016 (GMT -0500)
Aberdeen / Amory

Weather History for KM40 - November, 2013

Change the Weather History Date:

Wednesday, November 6, 2013

  Actual Average (KCBM) Record (KCBM)
Temperature  
Mean Temperature 60 °F -  
Max Temperature 75 °F 65 °F 78 °F (1996)
Min Temperature 46 °F 45 °F 27 °F (2010)
Degree Days  
Heating Degree Days 4    
Growing Degree Days 10 (Base 50)    
Moisture  
Dew Point 48 °F    
Average Humidity 56    
Maximum Humidity 60    
Minimum Humidity 52    
Precipitation  
Precipitation 0.31 in - - ()
Sea Level Pressure  
Sea Level Pressure 30.14 in    
Wind  
Wind Speed 6 mph (South)    
Max Wind Speed 14 mph    
Max Gust Speed 22 mph    
Visibility 7 miles    
Events Rain    
Averages and records for this station are not official NWS values.
T = Trace of Precipitation, MM = Missing Value Source: NWS Daily Summary

Daily Weather History Graph

Daily Weather History Graph

Search for Another Location

Airport or City:

Trip Planner

Search our weather history database for the weather conditions in past years. The results will help you decide how hot, cold, wet, or windy it might be!

Date:

Astronomy

Nov. 06, 2013 Rise Set
Actual Time 6:18 AM CST 4:56 PM CST
Civil Twilight 5:51 AM CST 5:22 PM CST
Nautical Twilight 5:22 AM CST 5:52 PM CST
Astronomical Twilight 4:52 AM CST 6:21 PM CST
Moon 9:29 AM CST (11/6) 8:04 PM CST (11/6)
Length of Visible Light 11h 30m
Length of Day
10h 38m
Waxing Crescent, 14% of the Moon is Illuminated
Nov 6
Waxing Crescent
Nov 9
First Quarter
Nov 17
Full
Nov 25
Last Quarter
Dec 2
New

Hourly Weather History & Observations

Time (CST) Temp. Dew Point Humidity Pressure Visibility Wind Dir Wind Speed Gust Speed Precip Events Conditions
12:35 AM 59.0 °F 42.8 °F 55% 30.22 in 9.0 mi SSE 9.2 mph - N/A   Clear
12:55 AM 57.2 °F 42.8 °F 59% 30.21 in 10.0 mi SSE 5.8 mph - N/A   Clear
1:15 AM 57.2 °F 42.8 °F 59% 30.21 in 9.0 mi SSE 6.9 mph - N/A   Clear
1:35 AM 57.2 °F 41.0 °F 55% 30.20 in 10.0 mi SSE 4.6 mph - N/A   Clear
1:55 AM 55.4 °F 39.2 °F 54% 30.20 in 10.0 mi SSE 5.8 mph - N/A   Clear
2:15 AM 55.4 °F 39.2 °F 54% 30.19 in 10.0 mi SSE 3.5 mph - N/A   Clear
2:35 AM 55.4 °F 39.2 °F 54% 30.19 in 10.0 mi Calm Calm - N/A   Clear
2:55 AM 53.6 °F 37.4 °F 54% 30.18 in 9.0 mi SE 3.5 mph - N/A   Clear
3:15 AM 51.8 °F 37.4 °F 58% 30.18 in 9.0 mi SSE 3.5 mph - N/A   Clear
3:35 AM 53.6 °F 37.4 °F 54% 30.18 in 9.0 mi SSE 3.5 mph - N/A   Clear
3:55 AM 53.6 °F 37.4 °F 54% 30.18 in 9.0 mi Calm Calm - N/A   Clear
4:15 AM 51.8 °F 35.6 °F 54% 30.18 in 10.0 mi Calm Calm - N/A   Clear
4:35 AM 50.0 °F 33.8 °F 54% 30.18 in 10.0 mi SSE 3.5 mph - N/A   Clear
4:55 AM 48.2 °F 33.8 °F 58% 30.18 in 10.0 mi Calm Calm - N/A   Clear
5:15 AM 48.2 °F 33.8 °F 58% 30.18 in 10.0 mi Calm Calm - N/A   Clear
5:35 AM 46.4 °F 32.0 °F 57% 30.18 in 10.0 mi Calm Calm - N/A   Clear
5:55 AM 46.4 °F 32.0 °F 57% 30.18 in 8.0 mi Calm Calm - N/A   Clear
6:15 AM 46.4 °F 32.0 °F 57% 30.19 in 9.0 mi Calm Calm - N/A   Clear
6:35 AM 48.2 °F 33.8 °F 58% 30.19 in 7.0 mi SSE 4.6 mph - N/A   Clear
6:55 AM 51.8 °F 35.6 °F 54% 30.19 in 8.0 mi SSE 3.5 mph - N/A   Clear
7:15 AM 53.6 °F 37.4 °F 54% 30.19 in 7.0 mi SSE 5.8 mph - N/A   Clear
7:35 AM 55.4 °F 39.2 °F 54% 30.19 in 8.0 mi SSE 4.6 mph - N/A   Clear
7:55 AM 59.0 °F 42.8 °F 55% 30.19 in 8.0 mi South 8.1 mph - N/A   Clear
8:15 AM 60.8 °F 44.6 °F 55% 30.20 in 8.0 mi South 9.2 mph - N/A   Clear
8:35 AM 62.6 °F 46.4 °F 55% 30.20 in 8.0 mi South 6.9 mph - N/A   Clear
8:55 AM 64.4 °F 48.2 °F 56% 30.20 in 8.0 mi South 11.5 mph 17.3 mph N/A   Clear
9:15 AM 66.2 °F 50.0 °F 56% 30.20 in 8.0 mi South 12.7 mph 18.4 mph N/A   Partly Cloudy
9:35 AM 66.2 °F 50.0 °F 56% 30.20 in 7.0 mi South 11.5 mph 18.4 mph N/A   Clear
9:55 AM 69.8 °F 53.6 °F 56% 30.20 in 7.0 mi South 12.7 mph 21.9 mph N/A   Clear
10:15 AM 69.8 °F 53.6 °F 56% 30.20 in 6.0 mi South 11.5 mph 18.4 mph N/A   Haze
10:35 AM 71.6 °F 53.6 °F 53% 30.19 in 7.0 mi South 10.4 mph 17.3 mph N/A   Partly Cloudy
10:55 AM 71.6 °F 55.4 °F 57% 30.18 in 7.0 mi South 10.4 mph - N/A   Clear
11:15 AM 73.4 °F 57.2 °F 57% 30.17 in 7.0 mi SSE 10.4 mph - N/A   Partly Cloudy
11:35 AM 73.4 °F 55.4 °F 53% 30.16 in 6.0 mi South 11.5 mph 16.1 mph N/A   Haze
11:55 AM 71.6 °F 55.4 °F 57% 30.15 in 6.0 mi South 9.2 mph - N/A   Haze
12:15 PM 71.6 °F 55.4 °F 57% 30.14 in 8.0 mi SSW 9.2 mph - N/A   Partly Cloudy
12:35 PM 73.4 °F 55.4 °F 53% 30.12 in 7.0 mi South 9.2 mph - N/A   Clear
12:55 PM 75.2 °F 59.0 °F 57% 30.11 in 7.0 mi SSE 8.1 mph - N/A   Clear
1:15 PM 73.4 °F 57.2 °F 57% 30.10 in 7.0 mi South 9.2 mph - N/A   Partly Cloudy
1:35 PM 73.4 °F 57.2 °F 57% 30.10 in 7.0 mi South 9.2 mph - N/A   Partly Cloudy
1:55 PM 73.4 °F 57.2 °F 57% 30.09 in 7.0 mi South 4.6 mph - N/A   Light Drizzle
2:15 PM 75.2 °F 59.0 °F 57% 30.09 in 7.0 mi South 9.2 mph - N/A   Clear
2:35 PM 75.2 °F 59.0 °F 57% 30.08 in 7.0 mi SSW 9.2 mph - N/A   Clear
2:55 PM 75.2 °F 59.0 °F 57% 30.08 in 8.0 mi SSW 9.2 mph - N/A   Clear
3:15 PM 75.2 °F 57.2 °F 53% 30.08 in 7.0 mi SSW 9.2 mph - N/A   Clear
3:35 PM 73.4 °F 57.2 °F 57% 30.08 in 8.0 mi SSW 8.1 mph - N/A   Partly Cloudy
3:55 PM 73.4 °F 57.2 °F 57% 30.08 in 7.0 mi SSW 8.1 mph - N/A   Partly Cloudy
4:15 PM 73.4 °F 55.4 °F 53% 30.08 in 8.0 mi South 9.2 mph - N/A   Scattered Clouds
4:35 PM 71.6 °F 55.4 °F 57% 30.08 in 8.0 mi South 9.2 mph - N/A   Scattered Clouds
4:55 PM 71.6 °F 55.4 °F 57% 30.07 in 8.0 mi South 8.1 mph - N/A   Scattered Clouds
5:15 PM 71.6 °F 53.6 °F 53% 30.08 in 8.0 mi South 8.1 mph - N/A   Scattered Clouds
5:35 PM 69.8 °F 53.6 °F 56% 30.07 in 10.0 mi South 8.1 mph - N/A   Scattered Clouds
5:55 PM 69.8 °F 53.6 °F 56% 30.08 in 9.0 mi South 6.9 mph - N/A   Partly Cloudy
6:15 PM 69.8 °F 53.6 °F 56% 30.08 in 8.0 mi South 8.1 mph - N/A   Mostly Cloudy
6:35 PM 69.8 °F 53.6 °F 56% 30.08 in 9.0 mi South 6.9 mph - N/A   Overcast
6:55 PM 69.8 °F 51.8 °F 53% 30.08 in 8.0 mi South 6.9 mph - N/A   Overcast
7:15 PM 68.0 °F 51.8 °F 56% 30.07 in 7.0 mi South 5.8 mph - N/A   Mostly Cloudy
7:35 PM 66.2 °F 51.8 °F 60% 30.07 in 6.0 mi Calm Calm - N/A   Light Drizzle
7:55 PM 66.2 °F 50.0 °F 56% 30.09 in 1.5 mi NNW 12.7 mph 18.4 mph 0.17 in Rain Light Rain
8:15 PM 64.4 °F 48.2 °F 56% 30.10 in 1.8 mi NNW 11.5 mph - 0.05 in Rain Rain
8:35 PM 64.4 °F 48.2 °F 56% 30.12 in 2.0 mi NW 5.8 mph - 0.08 in Rain Light Rain
8:55 PM 64.4 °F 48.2 °F 56% 30.11 in 2.5 mi North 3.5 mph - 0.10 in   Light Drizzle
9:15 PM 64.4 °F 48.2 °F 56% 30.11 in 6.0 mi Calm Calm - N/A   Haze
9:35 PM 64.4 °F 48.2 °F 56% 30.10 in 7.0 mi Calm Calm - N/A   Clear
9:55 PM 64.4 °F 46.4 °F 52% 30.11 in 6.0 mi Calm Calm - N/A   Haze
10:15 PM 64.4 °F 48.2 °F 56% 30.11 in 4.0 mi Calm Calm - N/A Rain Light Rain
10:35 PM 64.4 °F 46.4 °F 52% 30.12 in 3.0 mi WNW 3.5 mph - N/A Rain Light Rain
10:55 PM 64.4 °F 46.4 °F 52% 30.11 in 3.0 mi Calm Calm - 0.01 in   Light Drizzle
11:15 PM 64.4 °F 46.4 °F 52% 30.12 in 2.5 mi WNW 3.5 mph - 0.01 in Rain Light Rain
11:35 PM 64.4 °F 46.4 °F 52% 30.13 in 3.0 mi WNW 5.8 mph - 0.02 in Rain Light Rain
11:55 PM 62.6 °F 46.4 °F 55% 30.13 in 2.5 mi NW 13.8 mph 19.6 mph 0.03 in Rain Light Rain